User: anonymous   Login
Location: Unspecified
(0.0000°N, 0.0000°E)
Time: 23:55:46
(UTC+00:00)
Language:

STARLINK-34991 - Orbit

View from above orbital plane
View from above orbital plane
View from above satellite
View from above satellite

Ground track
Ground track

The orbit is defined by the following mean orbital elements,

1 65446U          26145.40910288 +.00000000 +00000-0 +45360-3 0 00009
2 65446  97.4487 359.6569 0001957  76.7187 283.4258 15.05658625    02
Epoch (UTC): 25 May 2026 09:49:06
Eccentricity: 0.0001957
inclination: 97.4487°
perigee height: 548 km
apogee height: 551 km
right ascension of ascending node: 359.6569°
argument of perigee: 76.7187°
revolutions per day: 15.05658625
mean anomaly at epoch: 283.4258°

The dashed part of the orbit path shows where the satellite is in the earth's shadow,  

DLR